TimePDT,TemperatureF,Dew PointF,Humidity,Sea Level PressureIn,VisibilityMPH,Wind Direction,Wind SpeedMPH,Gust SpeedMPH,PrecipitationIn,Events,Conditions,WindDirDegrees,DateUTC
12:53 AM,64.0,35.1,34,29.87,10.0,West,8.1,-,N/A,,Clear,260,2013-06-14 07:53:00
1:53 AM,64.9,21.9,19,29.86,10.0,West,8.1,-,N/A,,Clear,260,2013-06-14 08:53:00
2:53 AM,60.1,25.0,26,29.86,10.0,WSW,3.5,-,N/A,,Clear,240,2013-06-14 09:53:00
3:53 AM,55.0,33.1,43,29.86,10.0,SE,4.6,-,N/A,,Clear,130,2013-06-14 10:53:00
4:53 AM,57.9,30.0,35,29.86,10.0,SW,10.4,-,N/A,,Clear,230,2013-06-14 11:53:00
5:53 AM,54.0,25.0,33,29.88,10.0,Calm,Calm,-,N/A,,Clear,0,2013-06-14 12:53:00
6:53 AM,61.0,25.0,25,29.88,10.0,South,6.9,-,N/A,,Clear,190,2013-06-14 13:53:00
7:53 AM,70.0,21.9,16,29.88,10.0,Calm,Calm,-,N/A,,Clear,0,2013-06-14 14:53:00
8:53 AM,73.9,24.1,16,29.89,10.0,East,3.5,-,N/A,,Clear,100,2013-06-14 15:53:00
9:53 AM,78.1,23.0,13,29.88,10.0,Calm,Calm,-,N/A,,Clear,0,2013-06-14 16:53:00
10:53 AM,82.0,23.0,11,29.86,10.0,Variable,5.8,-,N/A,,Clear,0,2013-06-14 17:53:00
11:53 AM,84.9,19.9,9,29.85,10.0,Variable,5.8,-,N/A,,Clear,0,2013-06-14 18:53:00
12:53 PM,89.1,19.0,8,29.83,10.0,Variable,6.9,18.4,N/A,,Clear,0,2013-06-14 19:53:00
1:53 PM,90.0,19.9,8,29.80,10.0,WSW,4.6,-,N/A,,Clear,240,2013-06-14 20:53:00
2:53 PM,91.9,34.0,13,29.78,10.0,WSW,12.7,18.4,N/A,,Clear,240,2013-06-14 21:53:00
3:53 PM,90.0,39.0,17,29.77,10.0,SW,17.3,-,N/A,,Clear,220,2013-06-14 22:53:00
4:53 PM,89.1,33.1,14,29.75,10.0,WSW,20.7,-,N/A,,Clear,240,2013-06-14 23:53:00
5:53 PM,88.0,28.9,12,29.75,10.0,WSW,17.3,-,N/A,,Clear,240,2013-06-15 00:53:00
6:53 PM,84.0,30.9,15,29.77,10.0,West,16.1,-,N/A,,Clear,280,2013-06-15 01:53:00
7:53 PM,79.0,30.9,17,29.78,10.0,WNW,11.5,-,N/A,,Clear,290,2013-06-15 02:53:00
8:53 PM,73.0,30.9,21,29.80,10.0,West,9.2,-,N/A,,Clear,280,2013-06-15 03:53:00
9:53 PM,70.0,39.0,32,29.82,10.0,WNW,9.2,-,N/A,,Clear,300,2013-06-15 04:53:00
10:53 PM,68.0,39.9,36,29.82,10.0,West,10.4,-,N/A,,Clear,280,2013-06-15 05:53:00
11:53 PM,66.0,30.0,26,29.81,10.0,West,12.7,-,N/A,,Clear,260,2013-06-15 06:53:00